Starlink 32512

operational
NORAD ID: 62027 Int'l Des: 2024-213 Owner: SPXS Country: US Constellation: starlink
LEOCIRCULAR

About Starlink 32512

Description loading...

Live Position

Loading 3D Globe...

Upcoming Passes

Altitude History

Altitude vs Time

uPlot chart will show altitude changes over time

Two-Line Element Set

1 62027U 24213V 25307.93162029 .00032901 00000-0 11185-2 0 9991
2 62027 53.1599 32.0488 0001284 91.3534 268.7614 15.30187649 53901
Epoch: Nov 3, 2025 • Age: 17 hours

Current Status

Altitude 492.8 km
Velocity 7.62 km/s
Sub-Earth Point -49.01°S, 3.13°W
Launch Date Nov 18, 2024
Age 0.9 years
Type internet

Technical Details

Classification Payload
Mass 730.00 kg
Dry Mass 700.00 kg
Total Mass 730.00 kg
Length 0.30 m
Diameter 4.10 m
Span 29.00 m
Shape Box + pan
Manufacturer SPXS
Bus Type Starlink V2M
Phase Status In Orbit
Owner/State SPXS/US

Large Constellations

Loading constellations...